When you browse on this site, cookies collect data to enhance your experience and personalize the content and advertising you see.
Visit our Privacy Policy to learn more. By continuing to use the site, you agree to this use of cookies and data.
  • In Romania
  • List of Countries
  • For 7 days
  • Water Temperature
  • Weather Map
  • Weather Widgets
  • user-avatar
    Login

    Hourly Weather Saint-Malo

    Today, 20 August, Tuesday

    Time Temperature Precipitation Wind Pressure Humidity
    00:00 +12°C° 0 mm 4 mps 766 mmHg 90%
    01:00 +12°C° 0 mm 4 mps 766 mmHg 91%
    02:00 +11°C° 0 mm 4 mps 766 mmHg 92%
    03:00 +11°C° 0 mm 3 mps 766 mmHg 93%
    04:00 +11°C° 0 mm 3 mps 766 mmHg 93%
    05:00 +11°C° 0 mm 3 mps 767 mmHg 93%
    06:00 +11°C° 0 mm 3 mps 767 mmHg 94%
    07:00 +13°C° 0 mm 3 mps 767 mmHg 85%
    08:00 +15°C° 0 mm 4 mps 768 mmHg 77%
    09:00 +18°C° 0 mm 4 mps 768 mmHg 68%
    10:00 +19°C° 0 mm 4 mps 768 mmHg 63%
    11:00 +20°C° 0 mm 5 mps 768 mmHg 59%
    12:00 +21°C° 0 mm 5 mps 768 mmHg 54%
    13:00 +20°C° 0 mm 5 mps 768 mmHg 55%
    14:00 +20°C° 0 mm 4 mps 769 mmHg 55%
    15:00 +20°C° 0 mm 4 mps 769 mmHg 56%
    16:00 +19°C° 0 mm 4 mps 769 mmHg 59%
    17:00 +18°C° 0 mm 3 mps 769 mmHg 62%
    18:00 +17°C° 0 mm 3 mps 769 mmHg 65%
    19:00 +16°C° 0 mm 3 mps 769 mmHg 70%
    20:00 +14°C° 0 mm 2 mps 770 mmHg 76%
    21:00 +13°C° 0 mm 2 mps 770 mmHg 81%
    22:00 +12°C° 0 mm 2 mps 770 mmHg 83%
    23:00 +12°C° 0 mm 1 mps 770 mmHg 85%

    Tomorrow, 21 August, Wednesday

    Time Temperature Precipitation Wind Pressure Humidity
    00:00 +11°C° 0 mm 1 mps 770 mmHg 86%
    01:00 +11°C° 0 mm 1 mps 770 mmHg 87%
    02:00 +11°C° 0 mm 1 mps 770 mmHg 88%
    03:00 +10°C° 0 mm 2 mps 769 mmHg 89%
    04:00 +10°C° 0 mm 2 mps 769 mmHg 88%
    05:00 +10°C° 0 mm 2 mps 769 mmHg 88%
    06:00 +10°C° 0 mm 2 mps 769 mmHg 87%
    07:00 +13°C° 0 mm 2 mps 769 mmHg 80%
    08:00 +16°C° 0 mm 2 mps 770 mmHg 72%
    09:00 +18°C° 0 mm 2 mps 770 mmHg 65%
    10:00 +21°C° 0 mm 1 mps 769 mmHg 59%
    11:00 +22°C° 0 mm 1 mps 769 mmHg 53%
    12:00 +24°C° 0 mm 1 mps 769 mmHg 47%
    13:00 +24°C° 0 mm 2 mps 768 mmHg 48%
    14:00 +24°C° 0 mm 3 mps 768 mmHg 48%
    15:00 +24°C° 0 mm 3 mps 768 mmHg 48%
    16:00 +22°C° 0 mm 3 mps 768 mmHg 52%
    17:00 +21°C° 0 mm 3 mps 768 mmHg 56%
    18:00 +20°C° 0 mm 3 mps 768 mmHg 61%
    19:00 +18°C° 0 mm 3 mps 768 mmHg 64%
    20:00 +17°C° 0 mm 3 mps 768 mmHg 67%
    21:00 +14°C° 0 mm 3 mps 768 mmHg 70%
    22:00 +15°C° 0 mm 2 mps 768 mmHg 72%
    23:00 +14°C° 0 mm 2 mps 768 mmHg 74%

    Day after tomorrow, 22 August, Thursday

    Time Temperature Precipitation Wind Pressure Humidity
    00:00 +14°C° 0 mm 2 mps 769 mmHg 76%
    01:00 +14°C° 0 mm 1 mps 768 mmHg 77%
    02:00 +13°C° 0 mm 1 mps 768 mmHg 79%
    03:00 +13°C° 0 mm 1 mps 768 mmHg 80%
    04:00 +13°C° 0 mm 1 mps 768 mmHg 80%
    05:00 +13°C° 0 mm 1 mps 768 mmHg 80%
    06:00 +14°C° 0 mm 1 mps 769 mmHg 80%
    07:00 +16°C° 0 mm 1 mps 769 mmHg 73%
    08:00 +19°C° 0 mm 1 mps 769 mmHg 65%
    09:00 +20°C° 0 mm 2 mps 769 mmHg 57%
    10:00 +21°C° 0 mm 2 mps 769 mmHg 54%
    11:00 +23°C° 0 mm 2 mps 769 mmHg 51%
    12:00 +25°C° 0 mm 3 mps 768 mmHg 49%
    13:00 +24°C° 0 mm 3 mps 768 mmHg 50%
    14:00 +23°C° 0 mm 4 mps 768 mmHg 52%
    15:00 +23°C° 0 mm 4 mps 768 mmHg 54%
    16:00 +22°C° 0 mm 4 mps 768 mmHg 59%
    17:00 +21°C° 0 mm 4 mps 768 mmHg 64%
    18:00 +19°C° 0 mm 4 mps 768 mmHg 68%
    19:00 +18°C° 0 mm 4 mps 768 mmHg 74%
    20:00 +17°C° 0 mm 4 mps 768 mmHg 80%
    21:00 +14°C° 0 mm 3 mps 769 mmHg 85%
    22:00 +14°C° 0 mm 3 mps 769 mmHg 86%
    23:00 +14°C° 0 mm 3 mps 769 mmHg 87%

    23 August, Friday

    Time Temperature Precipitation Wind Pressure Humidity
    00:00 +13°C° 0 mm 3 mps 768 mmHg 88%
    01:00 +13°C° 0 mm 3 mps 768 mmHg 87%
    02:00 +13°C° 0 mm 3 mps 768 mmHg 86%
    03:00 +13°C° 0 mm 3 mps 768 mmHg 85%
    04:00 +13°C° 0 mm 3 mps 768 mmHg 84%
    05:00 +13°C° 0 mm 3 mps 767 mmHg 83%
    06:00 +13°C° 0 mm 3 mps 767 mmHg 82%
    07:00 +17°C° 0 mm 3 mps 767 mmHg 73%
    08:00 +19°C° 0 mm 3 mps 767 mmHg 65%
    09:00 +21°C° 0 mm 3 mps 767 mmHg 57%
    10:00 +24°C° 0 mm 3 mps 767 mmHg 52%
    11:00 +26°C° 0 mm 3 mps 767 mmHg 48%
    12:00 +27°C° 0 mm 3 mps 766 mmHg 43%
    13:00 +27°C° 0 mm 3 mps 766 mmHg 43%
    14:00 +27°C° 0 mm 4 mps 765 mmHg 44%
    15:00 +28°C° 0 mm 4 mps 765 mmHg 44%
    16:00 +26°C° 0 mm 4 mps 765 mmHg 51%
    17:00 +25°C° 0 mm 5 mps 764 mmHg 57%
    18:00 +23°C° 0 mm 5 mps 764 mmHg 63%
    19:00 +21°C° 0 mm 5 mps 764 mmHg 67%
    20:00 +19°C° 0 mm 5 mps 764 mmHg 71%
    21:00 +17°C° 0 mm 5 mps 764 mmHg 74%
    22:00 +16°C° 0 mm 5 mps 764 mmHg 74%
    23:00 +17°C° 0 mm 4 mps 764 mmHg 74%

    24 August, Saturday

    Time Temperature Precipitation Wind Pressure Humidity
    00:00 +17°C° 0 mm 4 mps 763 mmHg 74%
    01:00 +17°C° 0 mm 3 mps 763 mmHg 75%
    02:00 +16°C° 0 mm 3 mps 763 mmHg 77%
    03:00 +16°C° 0 mm 3 mps 762 mmHg 78%
    04:00 +16°C° 0 mm 3 mps 762 mmHg 78%
    05:00 +17°C° 0 mm 3 mps 762 mmHg 77%
    06:00 +17°C° 0 mm 2 mps 762 mmHg 77%
    07:00 +19°C° 0 mm 2 mps 762 mmHg 71%
    08:00 +21°C° 0 mm 2 mps 762 mmHg 66%
    09:00 +25°C° 0 mm 2 mps 762 mmHg 60%
    10:00 +27°C° 0 mm 2 mps 762 mmHg 54%
    11:00 +28°C° 0 mm 3 mps 761 mmHg 48%
    12:00 +30°C° 0 mm 3 mps 761 mmHg 43%
    13:00 +31°C° 0 mm 3 mps 761 mmHg 40%
    14:00 +33°C° 0 mm 3 mps 760 mmHg 36%
    15:00 +33°C° 0 mm 3 mps 760 mmHg 33%
    16:00 +31°C° 0 mm 3 mps 760 mmHg 38%
    17:00 +30°C° 0 mm 3 mps 760 mmHg 43%
    18:00 +29°C° 0 mm 4 mps 759 mmHg 48%
    19:00 +27°C° 0 mm 3 mps 760 mmHg 51%
    20:00 +25°C° 0 mm 3 mps 760 mmHg 54%
    21:00 +22°C° 0 mm 3 mps 760 mmHg 57%
    22:00 +22°C° 0 mm 3 mps 760 mmHg 55%
    23:00 +22°C° 0 mm 3 mps 760 mmHg 53%

    25 August, Sunday

    Time Temperature Precipitation Wind Pressure Humidity
    00:00 +22°C° 0 mm 3 mps 760 mmHg 51%
    01:00 +21°C° 0 mm 3 mps 759 mmHg 55%
    02:00 +20°C° 0 mm 3 mps 759 mmHg 60%
    03:00 +19°C° 0 mm 3 mps 759 mmHg 64%
    04:00 +18°C° 0 mm 3 mps 759 mmHg 69%
    05:00 +18°C° 0 mm 3 mps 759 mmHg 74%
    06:00 +17°C° 0 mm 3 mps 759 mmHg 80%
    07:00 +19°C° 0 mm 3 mps 759 mmHg 73%
    08:00 +21°C° 0 mm 3 mps 760 mmHg 66%
    09:00 +24°C° 0 mm 3 mps 760 mmHg 60%
    10:00 +26°C° 0 mm 3 mps 760 mmHg 54%
    11:00 +27°C° 0 mm 3 mps 760 mmHg 48%
    12:00 +29°C° 0 mm 3 mps 760 mmHg 42%
    13:00 +28°C° 0 mm 4 mps 760 mmHg 46%
    14:00 +27°C° 0 mm 4 mps 760 mmHg 51%
    15:00 +26°C° 0 mm 5 mps 760 mmHg 55%
    16:00 +25°C° 0 mm 5 mps 760 mmHg 62%
    17:00 +22°C° 0 mm 5 mps 760 mmHg 69%
    18:00 +21°C° 0 mm 6 mps 760 mmHg 76%
    19:00 +20°C° 0 mm 5 mps 761 mmHg 80%
    20:00 +17°C° 0 mm 5 mps 761 mmHg 85%
    21:00 +16°C° 0 mm 5 mps 762 mmHg 90%
    22:00 +16°C° 0 mm 5 mps 762 mmHg 91%
    23:00 +17°C° 0 mm 5 mps 762 mmHg 92%
    Show more